Location: Tehachapi Municipal Airport
(35.1300°N, 118.4400°W)
Time: 16:56:23
(UTC-07:00)

BREEZE M DEB (TANK) - Visible Passes

Search period start: 03 May 2015 00:00
Search period end: 13 May 2015 00:00
Orbit: 283 x 12133 km, 49.5° (Epoch: 03 May)

Date Brightness Start Highest point End Pass type
(mag) Time Alt. Az. Time Alt. Az. Time Alt. Az.
03 May 7.9 01:51:47 10° NW 03:32:38 73° SW 04:14:40 10° SSE visible
03 May 8.6 20:48:55 10° W 21:27:47 69° N 23:16:11 10° E visible
04 May 8.0 01:11:37 10° WNW 02:51:26 81° SW 03:38:35 10° SSE visible
04 May 8.4 20:11:52 10° WSW 20:43:58 72° NNW 22:33:41 10° E visible
05 May 8.1 00:31:52 10° WNW 02:08:34 89° SW 03:02:03 10° SE visible
05 May 7.9 05:18:30 10° NW 06:29:24 22° W 06:52:07 10° SW visible
05 May 8.2 19:35:03 10° WSW 20:01:51 76° NNW 21:49:54 10° ENE visible
05 May 8.2 23:52:29 10° WNW 01:23:47 84° NE 02:25:04 10° SE visible
06 May 7.8 04:32:36 10° NW 05:52:58 30° W 06:20:49 10° SW visible
06 May 8.0 18:58:29 10° WSW 19:21:08 81° NNW 21:04:52 10° ENE visible
06 May 8.3 23:13:27 10° WNW 00:37:03 78° NNE 01:47:32 10° SE visible
07 May 7.8 03:48:45 10° NW 05:16:04 37° WSW 05:47:47 10° SSW visible
07 May 7.7 18:22:08 10° SW 18:41:36 88° NW 20:18:50 10° ENE visible
07 May 8.4 22:34:44 10° WNW 23:48:45 73° NNE 01:09:23 10° ESE visible
08 May 7.8 03:06:12 10° NW 04:38:33 45° WSW 05:13:41 10° SSW visible
08 May 8.5 21:56:21 10° WNW 22:59:45 70° NNE 00:30:31 10° ESE visible
09 May 7.8 02:24:35 10° NW 04:00:19 54° WSW 04:38:52 10° S visible
09 May 8.6 21:18:13 10° W 22:11:12 68° N 23:50:45 10° ESE visible
10 May 7.8 01:43:38 10° NW 03:21:07 62° WSW 04:03:29 10° S visible
10 May 8.8 20:40:23 10° W 21:24:00 67° N 23:09:56 10° E visible
11 May 7.9 01:03:13 10° NW 02:40:42 71° SW 03:27:36 10° SSE visible
11 May 8.6 20:02:49 10° W 20:38:35 68° N 22:27:51 10° E visible
12 May 8.0 00:23:14 10° NW 01:58:53 79° SW 02:51:14 10° SSE visible
12 May 8.1 05:17:07 10° NW 06:14:59 14° W 06:27:38 10° WSW visible
12 May 8.4 19:25:30 10° WSW 19:54:57 70° NNW 21:44:22 10° E visible
